This is the latest recevied weather packets stored in our database for station/object EA4BCR. If no packets are shown the sender has not sent any weather packets the latest 10 day(s).
| Time | Temp. | Humidity | Pressure | Rain* | Wind** | Luminosity | Snow |
|---|---|---|---|---|---|---|---|
| 1777979453 | 18.33° C | 40% | 1010.3 hPa | - | - | - | - |
| 1777978853 | 16.67° C | 43% | 1011 hPa | - | - | - | - |
| 1777978255 | 17.78° C | 41% | 1010.7 hPa | - | - | - | - |
| 1777977654 | 18.89° C | 39% | 1010.3 hPa | - | - | - | - |
| 1777977054 | 16.67° C | 47% | 1011.1 hPa | - | - | - | - |
| 1777976453 | 16.11° C | 44% | 1011.4 hPa | - | - | - | - |
| 1777975853 | 16.67° C | 48% | 1011.3 hPa | - | - | - | - |
| 1777975253 | 15° C | 49% | 1011.9 hPa | - | - | - | - |
| 1777974654 | 15.56° C | 50% | 1011.8 hPa | - | - | - | - |
| 1777974054 | 16.11° C | 50% | 1011.5 hPa | - | - | - | - |
| 1777973453 | 16.11° C | 55% | 1011.5 hPa | - | - | - | - |
| 1777972853 | 15.56° C | 58% | 1011.5 hPa | - | - | - | - |
| 1777972253 | 16.11° C | 61% | 1011.5 hPa | - | - | - | - |
| 1777971654 | 15.56° C | 63% | 1011.7 hPa | - | - | - | - |
| 1777971053 | 15° C | 66% | 1012.1 hPa | - | - | - | - |
| 1777970454 | 14.44° C | 68% | 1012.2 hPa | - | - | - | - |
| 1777969853 | 14.44° C | 71% | 1012.4 hPa | - | - | - | - |
| 1777969253 | 15° C | 77% | 1012 hPa | - | - | - | - |
| 1777968653 | 13.89° C | 78% | 1012.5 hPa | - | - | - | - |
| 1777968054 | 13.89° C | 77% | 1012.7 hPa | - | - | - | - |
| 1777967453 | 13.89° C | 70% | 1012.6 hPa | - | - | - | - |
| 1777966853 | 13.89° C | 79% | 1012.7 hPa | - | - | - | - |
| 1777966253 | 13.33° C | 81% | 1012.9 hPa | - | - | - | - |
| 1777965653 | 11.67° C | 86% | 1013.3 hPa | - | - | - | - |
| 1777965053 | 12.22° C | 92% | 1013.3 hPa | - | - | - | - |
* Rain since midnight (hover to see other rain measurements)
** Current wind speed in m/s (hover to see current wind gust speed)